Time,TemperatureF,DewpointF,PressureIn,WindDirection,WindDirectionDegrees,WindSpeedMPH,WindSpeedGustMPH,Humidity,HourlyPrecipIn,Conditions,Clouds,dailyrainin,SoftwareType,DateUTC
2013-03-27 00:01:00,38.4,30.5,30.39,ENE,75,0.0,6.0,73,0.00,,,0.00,Wunderground v.1.15,2013-03-27 05:01:00,
2013-03-27 00:07:00,38.3,30.4,30.39,ENE,75,0.0,0.0,73,0.00,,,0.00,Wunderground v.1.15,2013-03-27 05:07:00,
2013-03-27 00:13:00,38.1,30.2,30.39,ENE,75,0.0,0.0,73,0.00,,,0.00,Wunderground v.1.15,2013-03-27 05:13:00,
2013-03-27 00:18:00,38.1,30.2,30.39,ENE,75,0.0,0.0,73,0.00,,,0.00,Wunderground v.1.15,2013-03-27 05:18:00,
2013-03-27 00:24:00,37.9,30.4,30.39,ENE,75,0.0,0.0,74,0.00,,,0.00,Wunderground v.1.15,2013-03-27 05:24:00,
2013-03-27 00:29:00,37.6,30.1,30.39,ENE,75,0.0,0.0,74,0.00,,,0.00,Wunderground v.1.15,2013-03-27 05:29:00,
2013-03-27 00:35:00,37.3,30.4,30.39,ENE,75,0.0,0.0,76,0.00,,,0.00,Wunderground v.1.15,2013-03-27 05:35:00,
2013-03-27 00:41:00,37.1,30.2,30.39,ENE,75,0.0,0.0,76,0.00,,,0.00,Wunderground v.1.15,2013-03-27 05:41:00,
2013-03-27 00:46:00,36.9,30.0,30.39,ENE,75,0.0,0.0,76,0.00,,,0.00,Wunderground v.1.15,2013-03-27 05:46:00,
2013-03-27 00:51:00,36.7,30.2,30.39,ENE,75,0.0,0.0,77,0.00,,,0.00,Wunderground v.1.15,2013-03-27 05:51:00,
2013-03-27 00:57:00,36.5,30.0,30.39,ENE,75,0.0,0.0,77,0.00,,,0.00,Wunderground v.1.15,2013-03-27 05:57:00,
2013-03-27 01:03:00,36.4,30.5,30.39,ENE,75,0.0,0.0,79,0.00,,,0.00,Wunderground v.1.15,2013-03-27 06:03:00,
2013-03-27 01:08:00,36.3,30.4,30.39,ENE,75,0.0,0.0,79,0.00,,,0.00,Wunderground v.1.15,2013-03-27 06:08:00,
2013-03-27 01:15:00,35.8,30.2,30.39,ENE,75,0.0,0.0,80,0.00,,,0.00,Wunderground v.1.15,2013-03-27 06:15:00,
2013-03-27 01:20:00,35.6,30.3,30.39,ENE,75,0.0,0.0,81,0.00,,,0.00,Wunderground v.1.15,2013-03-27 06:20:00,
2013-03-27 01:26:00,35.4,30.8,30.39,ENE,75,0.0,0.0,83,0.00,,,0.00,Wunderground v.1.15,2013-03-27 06:26:00,
2013-03-27 01:31:00,35.5,30.8,30.39,ENE,75,0.0,0.0,83,0.00,,,0.00,Wunderground v.1.15,2013-03-27 06:31:00,
2013-03-27 01:36:00,35.5,30.8,30.39,ENE,75,0.0,0.0,83,0.00,,,0.00,Wunderground v.1.15,2013-03-27 06:36:00,
2013-03-27 01:41:00,35.3,30.7,30.39,ENE,75,0.0,0.0,83,0.00,,,0.00,Wunderground v.1.15,2013-03-27 06:41:00,
2013-03-27 01:47:00,35.1,30.2,30.39,ENE,75,0.0,0.0,82,0.00,,,0.00,Wunderground v.1.15,2013-03-27 06:47:00,
2013-03-27 01:52:00,34.9,30.3,30.39,ENE,75,0.0,0.0,83,0.00,,,0.00,Wunderground v.1.15,2013-03-27 06:52:00,
2013-03-27 01:57:00,34.7,30.4,30.39,ENE,75,0.0,0.0,84,0.00,,,0.00,Wunderground v.1.15,2013-03-27 06:57:00,
2013-03-27 02:03:00,34.7,30.4,30.39,ENE,75,0.0,0.0,84,0.00,,,0.00,Wunderground v.1.15,2013-03-27 07:03:00,
2013-03-27 02:08:00,34.5,30.2,30.38,ENE,75,0.0,0.0,84,0.00,,,0.00,Wunderground v.1.15,2013-03-27 07:08:00,
2013-03-27 02:14:00,34.7,30.7,30.38,ENE,75,0.0,0.0,85,0.00,,,0.00,Wunderground v.1.15,2013-03-27 07:14:00,
2013-03-27 02:19:00,34.7,30.4,30.39,ENE,75,0.0,0.0,84,0.00,,,0.00,Wunderground v.1.15,2013-03-27 07:19:00,
2013-03-27 02:25:00,34.8,30.8,30.39,ENE,75,0.0,0.0,85,0.00,,,0.00,Wunderground v.1.15,2013-03-27 07:25:00,
2013-03-27 02:30:00,35.5,31.1,30.38,East,84,0.0,0.0,84,0.00,,,0.00,Wunderground v.1.15,2013-03-27 07:30:00,
2013-03-27 02:35:00,36.4,31.1,30.38,East,84,0.0,1.0,81,0.00,,,0.00,Wunderground v.1.15,2013-03-27 07:35:00,
2013-03-27 02:41:00,37.3,31.1,30.38,ESE,117,0.0,1.0,78,0.00,,,0.00,Wunderground v.1.15,2013-03-27 07:41:00,
2013-03-27 02:46:00,37.7,30.8,30.38,ESE,117,0.0,1.0,76,0.00,,,0.00,Wunderground v.1.15,2013-03-27 07:46:00,
2013-03-27 02:52:00,38.0,30.8,30.38,ESE,105,1.0,1.0,75,0.00,,,0.00,Wunderground v.1.15,2013-03-27 07:52:00,
2013-03-27 02:58:00,38.3,30.7,30.38,ESE,103,1.0,1.0,74,0.00,,,0.00,Wunderground v.1.15,2013-03-27 07:58:00,
2013-03-27 03:03:00,38.3,30.7,30.38,ESE,103,1.0,1.0,74,0.00,,,0.00,Wunderground v.1.15,2013-03-27 08:03:00,
2013-03-27 03:08:00,38.3,30.7,30.38,ESE,103,0.0,1.0,74,0.00,,,0.00,Wunderground v.1.15,2013-03-27 08:08:00,
2013-03-27 03:14:00,38.1,30.5,30.37,ESE,103,0.0,1.0,74,0.00,,,0.00,Wunderground v.1.15,2013-03-27 08:14:00,
2013-03-27 03:19:00,37.9,31.0,30.38,ESE,103,0.0,0.0,76,0.00,,,0.00,Wunderground v.1.15,2013-03-27 08:19:00,
2013-03-27 03:25:00,37.2,30.3,30.38,ESE,103,0.0,0.0,76,0.00,,,0.00,Wunderground v.1.15,2013-03-27 08:25:00,
2013-03-27 03:30:00,36.5,30.3,30.38,ESE,103,0.0,0.0,78,0.00,,,0.00,Wunderground v.1.15,2013-03-27 08:30:00,
2013-03-27 03:36:00,36.1,30.2,30.37,ESE,103,0.0,0.0,79,0.00,,,0.00,Wunderground v.1.15,2013-03-27 08:36:00,
2013-03-27 03:41:00,36.1,30.5,30.37,ESE,109,0.0,1.0,80,0.00,,,0.00,Wunderground v.1.15,2013-03-27 08:41:00,
2013-03-27 03:46:00,36.5,30.6,30.38,ESE,109,0.0,0.0,79,0.00,,,0.00,Wunderground v.1.15,2013-03-27 08:46:00,
2013-03-27 03:52:00,36.3,30.1,30.38,ESE,115,0.0,0.0,78,0.00,,,0.00,Wunderground v.1.15,2013-03-27 08:52:00,
2013-03-27 03:57:00,36.2,30.3,30.38,ESE,115,0.0,0.0,79,0.00,,,0.00,Wunderground v.1.15,2013-03-27 08:57:00,
2013-03-27 04:03:00,35.9,30.0,30.38,ESE,115,0.0,0.0,79,0.00,,,0.00,Wunderground v.1.15,2013-03-27 09:03:00,
2013-03-27 04:08:00,35.5,29.9,30.38,ESE,115,0.0,0.0,80,0.00,,,0.00,Wunderground v.1.15,2013-03-27 09:08:00,
2013-03-27 04:13:00,35.0,29.5,30.38,ESE,116,0.0,0.0,80,0.00,,,0.00,Wunderground v.1.15,2013-03-27 09:13:00,
2013-03-27 04:18:00,34.5,29.6,30.38,ESE,115,0.0,0.0,82,0.00,,,0.00,Wunderground v.1.15,2013-03-27 09:18:00,
2013-03-27 04:24:00,34.0,29.4,30.38,ESE,116,0.0,0.0,83,0.00,,,0.00,Wunderground v.1.15,2013-03-27 09:24:00,
2013-03-27 04:29:00,33.6,29.3,30.38,ESE,115,0.0,0.0,84,0.00,,,0.00,Wunderground v.1.15,2013-03-27 09:29:00,
2013-03-27 04:35:00,33.3,29.3,30.38,ESE,115,0.0,0.0,85,0.00,,,0.00,Wunderground v.1.15,2013-03-27 09:35:00,
2013-03-27 04:40:00,33.2,29.5,30.38,ESE,115,0.0,0.0,86,0.00,,,0.00,Wunderground v.1.15,2013-03-27 09:40:00,
2013-03-27 04:45:00,33.2,29.5,30.38,ESE,116,0.0,0.0,86,0.00,,,0.00,Wunderground v.1.15,2013-03-27 09:45:00,
2013-03-27 04:51:00,33.2,29.8,30.38,ESE,116,0.0,0.0,87,0.00,,,0.00,Wunderground v.1.15,2013-03-27 09:51:00,
2013-03-27 04:56:00,33.5,30.0,30.38,ESE,116,0.0,0.0,87,0.00,,,0.00,Wunderground v.1.15,2013-03-27 09:56:00,
2013-03-27 05:01:00,33.8,30.1,30.38,ESE,115,0.0,0.0,86,0.00,,,0.00,Wunderground v.1.15,2013-03-27 10:01:00,
2013-03-27 05:06:00,33.8,30.1,30.38,ESE,115,0.0,0.0,86,0.00,,,0.00,Wunderground v.1.15,2013-03-27 10:06:00,
2013-03-27 05:12:00,34.0,30.3,30.38,ESE,115,0.0,0.0,86,0.00,,,0.00,Wunderground v.1.15,2013-03-27 10:12:00,
2013-03-27 05:17:00,34.2,30.2,30.38,ESE,115,0.0,0.0,85,0.00,,,0.00,Wunderground v.1.15,2013-03-27 10:17:00,
2013-03-27 05:23:00,34.3,30.0,30.38,ESE,115,0.0,0.0,84,0.00,,,0.00,Wunderground v.1.15,2013-03-27 10:23:00,
2013-03-27 05:28:00,34.6,30.3,30.38,ESE,116,0.0,0.0,84,0.00,,,0.00,Wunderground v.1.15,2013-03-27 10:28:00,
2013-03-27 05:33:00,34.9,30.6,30.38,ESE,115,0.0,0.0,84,0.00,,,0.00,Wunderground v.1.15,2013-03-27 10:33:00,
2013-03-27 05:38:00,34.9,30.6,30.38,ESE,115,0.0,0.0,84,0.00,,,0.00,Wunderground v.1.15,2013-03-27 10:38:00,
2013-03-27 05:44:00,34.9,30.6,30.38,ESE,115,0.0,0.0,84,0.00,,,0.00,Wunderground v.1.15,2013-03-27 10:44:00,
2013-03-27 05:49:00,34.7,30.4,30.39,ESE,115,0.0,0.0,84,0.00,,,0.00,Wunderground v.1.15,2013-03-27 10:49:00,
2013-03-27 05:55:00,34.4,30.1,30.39,ESE,115,0.0,0.0,84,0.00,,,0.00,Wunderground v.1.15,2013-03-27 10:55:00,
2013-03-27 06:00:00,34.0,29.7,30.39,ESE,116,0.0,0.0,84,0.00,,,0.00,Wunderground v.1.15,2013-03-27 11:00:00,
2013-03-27 06:06:00,33.5,29.5,30.40,ESE,116,0.0,0.0,85,0.00,,,0.00,Wunderground v.1.15,2013-03-27 11:06:00,
2013-03-27 06:11:00,33.2,29.5,30.40,ESE,115,0.0,0.0,86,0.00,,,0.00,Wunderground v.1.15,2013-03-27 11:11:00,
2013-03-27 06:17:00,33.0,29.6,30.40,ESE,115,0.0,0.0,87,0.00,,,0.00,Wunderground v.1.15,2013-03-27 11:17:00,
2013-03-27 06:22:00,32.8,29.4,30.41,ESE,115,0.0,0.0,87,0.00,,,0.00,Wunderground v.1.15,2013-03-27 11:22:00,
2013-03-27 06:28:00,32.6,29.2,30.41,ESE,116,0.0,0.0,87,0.00,,,0.00,Wunderground v.1.15,2013-03-27 11:28:00,
2013-03-27 06:34:00,32.3,28.9,30.41,ESE,115,0.0,0.0,87,0.00,,,0.00,Wunderground v.1.15,2013-03-27 11:34:00,
2013-03-27 06:39:00,32.1,28.9,30.41,ESE,115,0.0,0.0,88,0.00,,,0.00,Wunderground v.1.15,2013-03-27 11:39:00,
2013-03-27 06:44:00,32.0,28.8,30.41,ESE,115,0.0,0.0,88,0.00,,,0.00,Wunderground v.1.15,2013-03-27 11:44:00,
2013-03-27 06:50:00,31.8,28.7,30.41,ESE,116,0.0,0.0,88,0.00,,,0.00,Wunderground v.1.15,2013-03-27 11:50:00,
2013-03-27 06:55:00,31.6,28.7,30.41,ESE,115,0.0,0.0,89,0.00,,,0.00,Wunderground v.1.15,2013-03-27 11:55:00,
2013-03-27 07:00:00,31.7,28.8,30.41,ESE,115,0.0,0.0,89,0.00,,,0.00,Wunderground v.1.15,2013-03-27 12:00:00,
2013-03-27 07:06:00,31.6,28.7,30.41,ESE,115,0.0,0.0,89,0.00,,,0.00,Wunderground v.1.15,2013-03-27 12:06:00,
2013-03-27 07:11:00,31.6,29.0,30.42,ESE,115,0.0,0.0,90,0.00,,,0.00,Wunderground v.1.15,2013-03-27 12:11:00,
2013-03-27 07:16:00,31.6,29.0,30.42,ESE,115,0.0,0.0,90,0.00,,,0.00,Wunderground v.1.15,2013-03-27 12:16:00,
2013-03-27 07:22:00,32.0,29.4,30.42,ESE,115,0.0,0.0,90,0.00,,,0.00,Wunderground v.1.15,2013-03-27 12:22:00,
2013-03-27 07:27:00,32.7,30.4,30.42,ESE,120,0.0,0.0,91,0.00,,,0.00,Wunderground v.1.15,2013-03-27 12:27:00,
2013-03-27 07:32:00,33.2,30.9,30.42,ESE,120,0.0,0.0,91,0.00,,,0.00,Wunderground v.1.15,2013-03-27 12:32:00,
2013-03-27 07:38:00,34.1,31.7,30.42,ESE,120,0.0,0.0,91,0.00,,,0.00,Wunderground v.1.15,2013-03-27 12:38:00,
2013-03-27 07:43:00,35.0,32.1,30.43,ESE,120,0.0,0.0,89,0.00,,,0.00,Wunderground v.1.15,2013-03-27 12:43:00,
2013-03-27 07:49:00,35.9,32.1,30.43,ESE,120,0.0,0.0,86,0.00,,,0.00,Wunderground v.1.15,2013-03-27 12:49:00,
2013-03-27 07:55:00,36.7,32.3,30.43,SE,125,0.0,1.0,84,0.00,,,0.00,Wunderground v.1.15,2013-03-27 12:55:00,
2013-03-27 08:00:00,37.4,32.1,30.43,SE,129,1.0,1.0,81,0.00,,,0.00,Wunderground v.1.15,2013-03-27 13:00:00,
2013-03-27 08:06:00,38.2,32.6,30.44,SE,125,1.0,2.0,80,0.00,,,0.00,Wunderground v.1.15,2013-03-27 13:06:00,
2013-03-27 08:11:00,38.5,32.2,30.44,SE,139,2.0,3.0,78,0.00,,,0.00,Wunderground v.1.15,2013-03-27 13:11:00,
2013-03-27 08:16:00,38.7,32.4,30.44,SE,127,2.0,2.0,78,0.00,,,0.00,Wunderground v.1.15,2013-03-27 13:16:00,
2013-03-27 08:22:00,39.0,32.4,30.44,SE,134,3.0,4.0,77,0.00,,,0.00,Wunderground v.1.15,2013-03-27 13:22:00,
2013-03-27 08:27:00,39.4,32.8,30.44,SSW,212,3.0,4.0,77,0.00,,,0.00,Wunderground v.1.15,2013-03-27 13:27:00,
2013-03-27 08:32:00,39.9,32.9,30.45,SE,128,3.0,5.0,76,0.00,,,0.00,Wunderground v.1.15,2013-03-27 13:32:00,
2013-03-27 08:38:00,40.4,33.1,30.45,SE,125,3.0,7.0,75,0.00,,,0.00,Wunderground v.1.15,2013-03-27 13:38:00,
2013-03-27 08:43:00,40.8,33.2,30.45,SE,125,4.0,7.0,74,0.00,,,0.00,Wunderground v.1.15,2013-03-27 13:43:00,
2013-03-27 08:48:00,41.3,33.0,30.45,SE,137,4.0,5.0,72,0.00,,,0.00,Wunderground v.1.15,2013-03-27 13:48:00,
2013-03-27 08:54:00,41.7,33.0,30.45,SE,134,4.0,6.0,71,0.00,,,0.00,Wunderground v.1.15,2013-03-27 13:54:00,
2013-03-27 08:59:00,42.2,33.5,30.46,SE,134,5.0,6.0,71,0.00,,,0.00,Wunderground v.1.15,2013-03-27 13:59:00,
2013-03-27 09:05:00,42.8,33.3,30.46,SE,131,5.0,6.0,69,0.00,,,0.00,Wunderground v.1.15,2013-03-27 14:05:00,
2013-03-27 09:10:00,43.5,33.6,30.46,SE,131,4.0,5.0,68,0.00,,,0.00,Wunderground v.1.15,2013-03-27 14:10:00,
2013-03-27 09:16:00,44.5,33.1,30.46,SSE,149,3.0,5.0,64,0.00,,,0.00,Wunderground v.1.15,2013-03-27 14:16:00,
2013-03-27 09:21:00,44.8,33.0,30.46,ESE,105,4.0,6.0,63,0.00,,,0.00,Wunderground v.1.15,2013-03-27 14:21:00,
2013-03-27 09:26:00,45.1,32.8,30.46,SE,142,5.0,5.0,62,0.00,,,0.00,Wunderground v.1.15,2013-03-27 14:26:00,
2013-03-27 09:32:00,45.7,33.8,30.47,East,89,5.0,6.0,63,0.00,,,0.00,Wunderground v.1.15,2013-03-27 14:32:00,
2013-03-27 09:37:00,46.0,32.9,30.47,SE,133,5.0,5.0,60,0.00,,,0.00,Wunderground v.1.15,2013-03-27 14:37:00,
2013-03-27 09:43:00,46.5,33.8,30.47,ESE,123,4.0,7.0,61,0.00,,,0.00,Wunderground v.1.15,2013-03-27 14:43:00,
2013-03-27 09:48:00,47.1,33.9,30.46,East,97,4.0,7.0,60,0.00,,,0.00,Wunderground v.1.15,2013-03-27 14:48:00,
2013-03-27 09:53:00,46.9,32.9,30.47,ESE,122,5.0,9.0,58,0.00,,,0.00,Wunderground v.1.15,2013-03-27 14:53:00,
2013-03-27 09:58:00,47.0,33.4,30.46,ESE,120,6.0,8.0,59,0.00,,,0.00,Wunderground v.1.15,2013-03-27 14:58:00,
2013-03-27 10:03:00,47.5,34.3,30.46,SE,126,5.0,8.0,60,0.00,,,0.00,Wunderground v.1.15,2013-03-27 15:03:00,
2013-03-27 10:10:00,48.2,33.7,30.46,SSE,152,5.0,6.0,57,0.00,,,0.00,Wunderground v.1.15,2013-03-27 15:10:00,
2013-03-27 10:15:00,48.7,32.8,30.46,ESE,113,5.0,8.0,54,0.00,,,0.00,Wunderground v.1.15,2013-03-27 15:15:00,
2013-03-27 10:21:00,48.8,33.3,30.46,SE,136,6.0,7.0,55,0.00,,,0.00,Wunderground v.1.15,2013-03-27 15:21:00,
2013-03-27 10:26:00,49.1,32.2,30.46,SE,130,6.0,6.0,52,0.00,,,0.00,Wunderground v.1.15,2013-03-27 15:26:00,
2013-03-27 10:31:00,49.9,32.5,30.46,SE,134,6.0,8.0,51,0.00,,,0.00,Wunderground v.1.15,2013-03-27 15:31:00,
2013-03-27 10:37:00,50.3,31.8,30.46,ESE,113,6.0,7.0,49,0.00,,,0.00,Wunderground v.1.15,2013-03-27 15:37:00,
2013-03-27 10:42:00,50.9,33.4,30.46,SSW,208,6.0,7.0,51,0.00,,,0.00,Wunderground v.1.15,2013-03-27 15:42:00,
2013-03-27 10:48:00,51.6,33.0,30.46,ESE,110,5.0,7.0,49,0.00,,,0.00,Wunderground v.1.15,2013-03-27 15:48:00,
2013-03-27 10:53:00,52.0,31.3,30.46,SSE,156,5.0,7.0,45,0.00,,,0.00,Wunderground v.1.15,2013-03-27 15:53:00,
2013-03-27 10:58:00,52.0,31.3,30.46,ESE,120,6.0,8.0,45,0.00,,,0.00,Wunderground v.1.15,2013-03-27 15:58:00,
2013-03-27 11:04:00,52.4,31.1,30.46,SSE,147,5.0,8.0,44,0.00,,,0.00,Wunderground v.1.15,2013-03-27 16:04:00,
2013-03-27 11:09:00,52.3,29.9,30.46,ESE,103,5.0,6.0,42,0.00,,,0.00,Wunderground v.1.15,2013-03-27 16:09:00,
2013-03-27 11:15:00,52.4,31.1,30.45,SSW,193,5.0,6.0,44,0.00,,,0.00,Wunderground v.1.15,2013-03-27 16:15:00,
2013-03-27 11:21:00,52.9,31.0,30.45,East,101,5.0,7.0,43,0.00,,,0.00,Wunderground v.1.15,2013-03-27 16:21:00,
2013-03-27 11:26:00,53.0,30.5,30.45,ESE,120,5.0,5.0,42,0.00,,,0.00,Wunderground v.1.15,2013-03-27 16:26:00,
2013-03-27 11:32:00,53.4,30.9,30.45,East,94,5.0,6.0,42,0.00,,,0.00,Wunderground v.1.15,2013-03-27 16:32:00,
2013-03-27 11:37:00,53.0,29.9,30.45,ESE,115,5.0,5.0,41,0.00,,,0.00,Wunderground v.1.15,2013-03-27 16:37:00,
2013-03-27 11:42:00,53.4,29.7,30.45,ESE,110,5.0,5.0,40,0.00,,,0.00,Wunderground v.1.15,2013-03-27 16:42:00,
2013-03-27 11:48:00,54.0,30.2,30.45,SSE,158,5.0,8.0,40,0.00,,,0.00,Wunderground v.1.15,2013-03-27 16:48:00,
2013-03-27 11:53:00,54.1,30.9,30.44,East,96,5.0,8.0,41,0.00,,,0.00,Wunderground v.1.15,2013-03-27 16:53:00,
2013-03-27 11:59:00,54.6,30.7,30.44,East,94,4.0,6.0,40,0.00,,,0.00,Wunderground v.1.15,2013-03-27 16:59:00,
2013-03-27 12:04:00,55.0,31.1,30.44,SSE,147,5.0,6.0,40,0.00,,,0.00,Wunderground v.1.15,2013-03-27 17:04:00,
2013-03-27 12:09:00,54.6,30.1,30.44,East,97,5.0,8.0,39,0.00,,,0.00,Wunderground v.1.15,2013-03-27 17:09:00,
2013-03-27 12:15:00,55.0,31.1,30.44,SE,129,4.0,8.0,40,0.00,,,0.00,Wunderground v.1.15,2013-03-27 17:15:00,
2013-03-27 12:20:00,55.3,30.7,30.43,SE,143,4.0,6.0,39,0.00,,,0.00,Wunderground v.1.15,2013-03-27 17:20:00,
2013-03-27 12:25:00,55.8,31.8,30.43,East,82,4.0,6.0,40,0.00,,,0.00,Wunderground v.1.15,2013-03-27 17:25:00,
2013-03-27 12:31:00,55.9,31.3,30.43,East,92,6.0,9.0,39,0.00,,,0.00,Wunderground v.1.15,2013-03-27 17:31:00,
2013-03-27 12:37:00,55.5,30.9,30.42,ENE,69,6.0,6.0,39,0.00,,,0.00,Wunderground v.1.15,2013-03-27 17:37:00,
2013-03-27 12:42:00,55.8,31.2,30.42,SSE,167,4.0,6.0,39,0.00,,,0.00,Wunderground v.1.15,2013-03-27 17:42:00,
2013-03-27 12:48:00,56.8,31.4,30.42,SW,225,3.0,6.0,38,0.00,,,0.00,Wunderground v.1.15,2013-03-27 17:48:00,
2013-03-27 12:53:00,57.5,32.1,30.41,NW,312,3.0,6.0,38,0.00,,,0.00,Wunderground v.1.15,2013-03-27 17:53:00,
2013-03-27 12:59:00,57.0,30.3,30.41,NNE,12,4.0,7.0,36,0.00,,,0.00,Wunderground v.1.15,2013-03-27 17:59:00,
2013-03-27 13:04:00,57.0,30.3,30.41,ENE,72,4.0,7.0,36,0.00,,,0.00,Wunderground v.1.15,2013-03-27 18:04:00,
2013-03-27 13:10:00,57.4,32.6,30.40,SE,134,4.0,8.0,39,0.00,,,0.00,Wunderground v.1.15,2013-03-27 18:10:00,
2013-03-27 13:15:00,57.8,30.3,30.40,WSW,242,5.0,8.0,35,0.00,,,0.00,Wunderground v.1.15,2013-03-27 18:15:00,
2013-03-27 13:21:00,58.0,31.8,30.40,SSE,167,4.0,8.0,37,0.00,,,0.00,Wunderground v.1.15,2013-03-27 18:21:00,
2013-03-27 13:26:00,58.0,32.5,30.39,ENE,64,4.0,7.0,38,0.00,,,0.00,Wunderground v.1.15,2013-03-27 18:26:00,
2013-03-27 13:32:00,58.2,30.7,30.39,East,82,5.0,7.0,35,0.00,,,0.00,Wunderground v.1.15,2013-03-27 18:32:00,
2013-03-27 13:38:00,58.3,32.1,30.38,East,85,3.0,7.0,37,0.00,,,0.00,Wunderground v.1.15,2013-03-27 18:38:00,
2013-03-27 13:43:00,58.7,31.8,30.38,WSW,238,3.0,7.0,36,0.00,,,0.00,Wunderground v.1.15,2013-03-27 18:43:00,
2013-03-27 13:49:00,59.0,31.4,30.38,ESE,113,3.0,7.0,35,0.00,,,0.00,Wunderground v.1.15,2013-03-27 18:49:00,
2013-03-27 13:54:00,59.5,32.5,30.38,South,184,3.0,7.0,36,0.00,,,0.00,Wunderground v.1.15,2013-03-27 18:54:00,
2013-03-27 14:00:00,59.9,31.4,30.37,East,81,3.0,7.0,34,0.00,,,0.00,Wunderground v.1.15,2013-03-27 19:00:00,
2013-03-27 14:06:00,59.9,32.2,30.37,South,184,4.0,4.0,35,0.00,,,0.00,Wunderground v.1.15,2013-03-27 19:06:00,
2013-03-27 14:11:00,60.3,32.5,30.36,SSE,153,4.0,7.0,35,0.00,,,0.00,Wunderground v.1.15,2013-03-27 19:11:00,
2013-03-27 14:16:00,60.6,31.3,30.35,NE,56,3.0,3.0,33,0.00,,,0.00,Wunderground v.1.15,2013-03-27 19:16:00,
2013-03-27 14:22:00,61.0,33.1,30.35,SSW,192,2.0,7.0,35,0.00,,,0.00,Wunderground v.1.15,2013-03-27 19:22:00,
2013-03-27 14:28:00,60.9,32.3,30.35,ENE,72,4.0,7.0,34,0.00,,,0.00,Wunderground v.1.15,2013-03-27 19:28:00,
2013-03-27 14:33:00,60.6,32.8,30.34,NE,35,6.0,8.0,35,0.00,,,0.00,Wunderground v.1.15,2013-03-27 19:33:00,
2013-03-27 14:40:00,61.0,33.1,30.34,SSE,163,5.0,7.0,35,0.00,,,0.00,Wunderground v.1.15,2013-03-27 19:40:00,
2013-03-27 14:45:00,60.8,32.2,30.34,ESE,110,4.0,7.0,34,0.00,,,0.00,Wunderground v.1.15,2013-03-27 19:45:00,
2013-03-27 14:51:00,60.9,33.7,30.34,SE,142,5.0,7.0,36,0.00,,,0.00,Wunderground v.1.15,2013-03-27 19:51:00,
2013-03-27 14:56:00,61.6,32.9,30.34,SSE,159,5.0,5.0,34,0.00,,,0.00,Wunderground v.1.15,2013-03-27 19:56:00,
2013-03-27 15:01:00,62.4,34.4,30.34,SW,222,4.0,7.0,35,0.00,,,0.00,Wunderground v.1.15,2013-03-27 20:01:00,
2013-03-27 15:07:00,62.2,32.7,30.33,East,85,4.0,7.0,33,0.00,,,0.00,Wunderground v.1.15,2013-03-27 20:07:00,
2013-03-27 15:12:00,61.9,33.9,30.33,NE,48,4.0,7.0,35,0.00,,,0.00,Wunderground v.1.15,2013-03-27 20:12:00,
2013-03-27 15:17:00,62.5,33.0,30.33,WSW,250,3.0,7.0,33,0.00,,,0.00,Wunderground v.1.15,2013-03-27 20:17:00,
2013-03-27 15:23:00,63.2,35.1,30.32,SE,145,2.0,7.0,35,0.00,,,0.00,Wunderground v.1.15,2013-03-27 20:23:00,
2013-03-27 15:28:00,63.0,33.4,30.32,ENE,61,3.0,7.0,33,0.00,,,0.00,Wunderground v.1.15,2013-03-27 20:28:00,
2013-03-27 15:34:00,62.9,33.3,30.31,SSE,153,5.0,9.0,33,0.00,,,0.00,Wunderground v.1.15,2013-03-27 20:34:00,
2013-03-27 15:39:00,62.6,33.1,30.31,ESE,106,4.0,7.0,33,0.00,,,0.00,Wunderground v.1.15,2013-03-27 20:39:00,
2013-03-27 15:45:00,62.8,33.2,30.31,WSW,247,3.0,7.0,33,0.00,,,0.00,Wunderground v.1.15,2013-03-27 20:45:00,
2013-03-27 15:51:00,63.1,33.5,30.31,SW,224,4.0,7.0,33,0.00,,,0.00,Wunderground v.1.15,2013-03-27 20:51:00,
2013-03-27 15:57:00,63.4,33.8,30.30,SW,228,3.0,7.0,33,0.00,,,0.00,Wunderground v.1.15,2013-03-27 20:57:00,
2013-03-27 16:02:00,63.3,33.7,30.30,SE,127,2.0,7.0,33,0.00,,,0.00,Wunderground v.1.15,2013-03-27 21:02:00,
2013-03-27 16:07:00,62.8,33.2,30.30,NNE,29,4.0,7.0,33,0.00,,,0.00,Wunderground v.1.15,2013-03-27 21:07:00,
2013-03-27 16:13:00,62.7,32.4,30.30,ESE,105,4.0,7.0,32,0.00,,,0.00,Wunderground v.1.15,2013-03-27 21:13:00,
2013-03-27 16:18:00,62.9,32.6,30.30,SW,225,4.0,7.0,32,0.00,,,0.00,Wunderground v.1.15,2013-03-27 21:18:00,
2013-03-27 16:24:00,63.1,32.7,30.29,East,79,4.0,7.0,32,0.00,,,0.00,Wunderground v.1.15,2013-03-27 21:24:00,
2013-03-27 16:29:00,62.9,33.3,30.29,ESE,114,5.0,10.0,33,0.00,,,0.00,Wunderground v.1.15,2013-03-27 21:29:00,
2013-03-27 16:35:00,62.7,33.2,30.29,ESE,110,5.0,10.0,33,0.00,,,0.00,Wunderground v.1.15,2013-03-27 21:35:00,
2013-03-27 16:40:00,62.4,32.9,30.28,NE,44,5.0,7.0,33,0.00,,,0.00,Wunderground v.1.15,2013-03-27 21:40:00,
2013-03-27 16:46:00,62.9,34.1,30.28,ESE,104,4.0,9.0,34,0.00,,,0.00,Wunderground v.1.15,2013-03-27 21:46:00,
2013-03-27 16:51:00,62.7,33.9,30.28,ENE,75,5.0,9.0,34,0.00,,,0.00,Wunderground v.1.15,2013-03-27 21:51:00,
2013-03-27 16:56:00,62.9,33.3,30.28,ESE,117,5.0,7.0,33,0.00,,,0.00,Wunderground v.1.15,2013-03-27 21:56:00,
2013-03-27 17:02:00,63.1,33.5,30.28,ESE,103,5.0,7.0,33,0.00,,,0.00,Wunderground v.1.15,2013-03-27 22:02:00,
2013-03-27 17:07:00,63.2,34.3,30.28,ESE,105,5.0,7.0,34,0.00,,,0.00,Wunderground v.1.15,2013-03-27 22:07:00,
2013-03-27 17:12:00,63.0,33.4,30.28,ESE,122,5.0,7.0,33,0.00,,,0.00,Wunderground v.1.15,2013-03-27 22:12:00,
2013-03-27 17:17:00,63.0,34.2,30.28,East,81,4.0,7.0,34,0.00,,,0.00,Wunderground v.1.15,2013-03-27 22:17:00,
2013-03-27 17:22:00,63.1,33.5,30.28,ENE,77,4.0,7.0,33,0.00,,,0.00,Wunderground v.1.15,2013-03-27 22:22:00,
2013-03-27 17:28:00,63.2,34.3,30.27,ESE,115,5.0,8.0,34,0.00,,,0.00,Wunderground v.1.15,2013-03-27 22:28:00,
2013-03-27 17:33:00,63.5,35.3,30.27,East,87,5.0,8.0,35,0.00,,,0.00,Wunderground v.1.15,2013-03-27 22:33:00,
2013-03-27 17:38:00,63.5,33.9,30.27,ESE,122,6.0,7.0,33,0.00,,,0.00,Wunderground v.1.15,2013-03-27 22:38:00,
2013-03-27 17:44:00,63.4,33.8,30.27,ESE,112,5.0,9.0,33,0.00,,,0.00,Wunderground v.1.15,2013-03-27 22:44:00,
2013-03-27 17:50:00,63.3,34.4,30.27,SE,130,5.0,8.0,34,0.00,,,0.00,Wunderground v.1.15,2013-03-27 22:50:00,
2013-03-27 17:55:00,63.3,33.7,30.27,SE,130,5.0,8.0,33,0.00,,,0.00,Wunderground v.1.15,2013-03-27 22:55:00,
2013-03-27 18:01:00,63.3,33.7,30.27,SE,135,5.0,7.0,33,0.00,,,0.00,Wunderground v.1.15,2013-03-27 23:01:00,
2013-03-27 18:06:00,63.3,34.4,30.27,ESE,114,4.0,4.0,34,0.00,,,0.00,Wunderground v.1.15,2013-03-27 23:06:00,
2013-03-27 18:12:00,63.3,34.4,30.27,SE,133,5.0,7.0,34,0.00,,,0.00,Wunderground v.1.15,2013-03-27 23:12:00,
2013-03-27 18:17:00,63.2,34.3,30.27,ESE,114,5.0,6.0,34,0.00,,,0.00,Wunderground v.1.15,2013-03-27 23:17:00,
2013-03-27 18:22:00,63.0,34.2,30.27,ESE,105,5.0,10.0,34,0.00,,,0.00,Wunderground v.1.15,2013-03-27 23:22:00,
2013-03-27 18:28:00,62.7,33.9,30.27,ESE,115,6.0,7.0,34,0.00,,,0.00,Wunderground v.1.15,2013-03-27 23:28:00,
2013-03-27 18:33:00,62.6,33.8,30.26,East,89,5.0,7.0,34,0.00,,,0.00,Wunderground v.1.15,2013-03-27 23:33:00,
2013-03-27 18:38:00,62.5,33.7,30.26,ESE,122,5.0,8.0,34,0.00,,,0.00,Wunderground v.1.15,2013-03-27 23:38:00,
2013-03-27 18:44:00,62.3,33.6,30.26,ESE,105,5.0,8.0,34,0.00,,,0.00,Wunderground v.1.15,2013-03-27 23:44:00,
2013-03-27 18:49:00,62.2,34.2,30.26,SE,129,5.0,7.0,35,0.00,,,0.00,Wunderground v.1.15,2013-03-27 23:49:00,
2013-03-27 18:55:00,62.0,34.0,30.25,SE,142,5.0,7.0,35,0.00,,,0.00,Wunderground v.1.15,2013-03-27 23:55:00,
2013-03-27 19:00:00,61.7,35.1,30.25,ESE,115,5.0,7.0,37,0.00,,,0.00,Wunderground v.1.15,2013-03-28 00:00:00,
2013-03-27 19:05:00,61.4,34.9,30.25,ESE,107,5.0,7.0,37,0.00,,,0.00,Wunderground v.1.15,2013-03-28 00:05:00,
2013-03-27 19:11:00,61.1,34.6,30.25,ESE,120,5.0,7.0,37,0.00,,,0.00,Wunderground v.1.15,2013-03-28 00:11:00,
2013-03-27 19:16:00,60.7,34.9,30.25,East,93,5.0,5.0,38,0.00,,,0.00,Wunderground v.1.15,2013-03-28 00:16:00,
2013-03-27 19:22:00,60.4,34.7,30.25,ESE,120,4.0,7.0,38,0.00,,,0.00,Wunderground v.1.15,2013-03-28 00:22:00,
2013-03-27 19:27:00,60.1,35.0,30.24,ESE,110,4.0,7.0,39,0.00,,,0.00,Wunderground v.1.15,2013-03-28 00:27:00,
2013-03-27 19:32:00,59.8,35.4,30.25,SE,126,3.0,7.0,40,0.00,,,0.00,Wunderground v.1.15,2013-03-28 00:32:00,
2013-03-27 19:38:00,59.4,35.1,30.24,East,97,3.0,7.0,40,0.00,,,0.00,Wunderground v.1.15,2013-03-28 00:38:00,
2013-03-27 19:44:00,59.0,35.3,30.25,ESE,120,3.0,7.0,41,0.00,,,0.00,Wunderground v.1.15,2013-03-28 00:44:00,
2013-03-27 19:49:00,58.7,35.0,30.25,ESE,110,3.0,7.0,41,0.00,,,0.00,Wunderground v.1.15,2013-03-28 00:49:00,
2013-03-27 19:55:00,58.6,35.0,30.25,ESE,122,4.0,7.0,41,0.00,,,0.00,Wunderground v.1.15,2013-03-28 00:55:00,
2013-03-27 20:00:00,58.2,35.2,30.25,ESE,122,4.0,7.0,42,0.00,,,0.00,Wunderground v.1.15,2013-03-28 01:00:00,
2013-03-27 20:05:00,57.9,34.9,30.25,SE,142,3.0,7.0,42,0.00,,,0.00,Wunderground v.1.15,2013-03-28 01:05:00,
2013-03-27 20:11:00,57.6,34.7,30.25,SSE,151,2.0,7.0,42,0.00,,,0.00,Wunderground v.1.15,2013-03-28 01:11:00,
2013-03-27 20:16:00,57.4,35.1,30.25,SE,135,2.0,7.0,43,0.00,,,0.00,Wunderground v.1.15,2013-03-28 01:16:00,
2013-03-27 20:22:00,57.0,35.3,30.25,ESE,114,2.0,7.0,44,0.00,,,0.00,Wunderground v.1.15,2013-03-28 01:22:00,
2013-03-27 20:27:00,56.6,35.5,30.25,SE,132,2.0,7.0,45,0.00,,,0.00,Wunderground v.1.15,2013-03-28 01:27:00,
2013-03-27 20:33:00,56.3,35.2,30.25,SE,125,2.0,7.0,45,0.00,,,0.00,Wunderground v.1.15,2013-03-28 01:33:00,
2013-03-27 20:38:00,56.1,35.0,30.26,SE,138,2.0,7.0,45,0.00,,,0.00,Wunderground v.1.15,2013-03-28 01:38:00,
2013-03-27 20:43:00,55.9,35.4,30.26,SSE,160,1.0,7.0,46,0.00,,,0.00,Wunderground v.1.15,2013-03-28 01:43:00,
2013-03-27 20:49:00,55.5,35.6,30.26,SSE,148,1.0,7.0,47,0.00,,,0.00,Wunderground v.1.15,2013-03-28 01:49:00,
2013-03-27 20:55:00,55.1,35.2,30.26,SE,141,1.0,7.0,47,0.00,,,0.00,Wunderground v.1.15,2013-03-28 01:55:00,
2013-03-27 21:01:00,54.6,36.3,30.26,SE,141,0.0,7.0,50,0.00,,,0.00,Wunderground v.1.15,2013-03-28 02:01:00,
2013-03-27 21:07:00,54.0,35.8,30.27,SE,141,0.0,7.0,50,0.00,,,0.00,Wunderground v.1.15,2013-03-28 02:07:00,
2013-03-27 21:12:00,53.6,35.9,30.27,SE,141,0.0,7.0,51,0.00,,,0.00,Wunderground v.1.15,2013-03-28 02:12:00,
2013-03-27 21:17:00,53.0,35.8,30.27,SE,141,0.0,7.0,52,0.00,,,0.00,Wunderground v.1.15,2013-03-28 02:17:00,
2013-03-27 21:23:00,52.6,35.9,30.27,SE,141,0.0,7.0,53,0.00,,,0.00,Wunderground v.1.15,2013-03-28 02:23:00,
2013-03-27 21:28:00,52.2,35.6,30.27,SE,141,0.0,7.0,53,0.00,,,0.00,Wunderground v.1.15,2013-03-28 02:28:00,
2013-03-27 21:35:00,51.6,35.9,30.27,SE,141,0.0,7.0,55,0.00,,,0.00,Wunderground v.1.15,2013-03-28 02:35:00,
2013-03-27 21:40:00,51.2,36.0,30.27,SE,141,0.0,7.0,56,0.00,,,0.00,Wunderground v.1.15,2013-03-28 02:40:00,
2013-03-27 21:45:00,50.7,36.0,30.28,SE,141,0.0,7.0,57,0.00,,,0.00,Wunderground v.1.15,2013-03-28 02:45:00,
2013-03-27 21:50:00,50.2,35.5,30.28,SE,141,0.0,7.0,57,0.00,,,0.00,Wunderground v.1.15,2013-03-28 02:50:00,
2013-03-27 21:55:00,49.7,35.5,30.29,SE,141,0.0,7.0,58,0.00,,,0.00,Wunderground v.1.15,2013-03-28 02:55:00,
2013-03-27 22:01:00,49.3,36.4,30.29,ESE,120,0.0,7.0,61,0.00,,,0.00,Wunderground v.1.15,2013-03-28 03:01:00,
2013-03-27 22:06:00,49.6,36.3,30.29,ESE,120,0.0,7.0,60,0.00,,,0.00,Wunderground v.1.15,2013-03-28 03:06:00,
2013-03-27 22:11:00,49.6,35.8,30.29,ESE,120,0.0,7.0,59,0.00,,,0.00,Wunderground v.1.15,2013-03-28 03:11:00,
2013-03-27 22:17:00,49.4,35.7,30.29,ESE,120,0.0,7.0,59,0.00,,,0.00,Wunderground v.1.15,2013-03-28 03:17:00,
2013-03-27 22:22:00,49.2,35.5,30.29,ESE,120,0.0,7.0,59,0.00,,,0.00,Wunderground v.1.15,2013-03-28 03:22:00,
2013-03-27 22:28:00,49.1,35.8,30.29,ESE,120,0.0,7.0,60,0.00,,,0.00,Wunderground v.1.15,2013-03-28 03:28:00,
2013-03-27 22:33:00,49.0,35.3,30.29,ESE,120,0.0,7.0,59,0.00,,,0.00,Wunderground v.1.15,2013-03-28 03:33:00,
2013-03-27 22:38:00,48.8,35.9,30.29,ESE,120,0.0,7.0,61,0.00,,,0.00,Wunderground v.1.15,2013-03-28 03:38:00,
2013-03-27 22:44:00,48.3,36.3,30.29,ESE,120,0.0,7.0,63,0.00,,,0.00,Wunderground v.1.15,2013-03-28 03:44:00,
2013-03-27 22:50:00,47.9,35.9,30.30,ESE,120,0.0,7.0,63,0.00,,,0.00,Wunderground v.1.15,2013-03-28 03:50:00,
2013-03-27 22:55:00,47.2,35.6,30.30,ESE,120,0.0,7.0,64,0.00,,,0.00,Wunderground v.1.15,2013-03-28 03:55:00,
2013-03-27 23:00:00,46.6,36.2,30.30,ESE,120,0.0,7.0,67,0.00,,,0.00,Wunderground v.1.15,2013-03-28 04:00:00,
2013-03-27 23:01:00,46.5,36.1,30.30,ESE,120,0.0,7.0,67,0.00,,,0.00,Wunderground v.1.15,2013-03-28 04:01:00,
2013-03-27 23:02:00,46.4,36.0,30.30,ESE,120,0.0,7.0,67,0.00,,,0.00,Wunderground v.1.15,2013-03-28 04:02:00,
2013-03-27 23:05:00,46.3,36.3,30.30,ESE,120,0.0,7.0,68,0.00,,,0.00,Wunderground v.1.15,2013-03-28 04:05:00,
2013-03-27 23:10:00,46.5,36.9,30.30,ESE,118,1.0,7.0,69,0.00,,,0.00,Wunderground v.1.15,2013-03-28 04:10:00,
2013-03-27 23:17:00,46.4,36.4,30.30,SW,232,1.0,7.0,68,0.00,,,0.00,Wunderground v.1.15,2013-03-28 04:17:00,
2013-03-27 23:22:00,46.4,36.4,30.30,SW,231,1.0,7.0,68,0.00,,,0.00,Wunderground v.1.15,2013-03-28 04:22:00,
2013-03-27 23:28:00,46.7,36.7,30.31,South,176,0.0,7.0,68,0.00,,,0.00,Wunderground v.1.15,2013-03-28 04:28:00,
2013-03-27 23:33:00,47.1,37.1,30.31,South,176,1.0,7.0,68,0.00,,,0.00,Wunderground v.1.15,2013-03-28 04:33:00,
2013-03-27 23:39:00,47.1,37.1,30.31,SSW,210,0.0,7.0,68,0.00,,,0.00,Wunderground v.1.15,2013-03-28 04:39:00,
2013-03-27 23:44:00,46.9,36.9,30.30,SW,226,0.0,7.0,68,0.00,,,0.00,Wunderground v.1.15,2013-03-28 04:44:00,
2013-03-27 23:50:00,46.6,36.6,30.31,SE,140,0.0,7.0,68,0.00,,,0.00,Wunderground v.1.15,2013-03-28 04:50:00,
2013-03-27 23:56:00,46.3,37.0,30.31,ESE,105,0.0,7.0,70,0.00,,,0.00,Wunderground v.1.15,2013-03-28 04:56:00,